Regional Weather Roundup
Issued by NWS

Home | Current Version | Previous Version | Text Only | Print | Product List | Glossary Off
Versions: 1 2 3 4 5 6 7 8 9 10 11 12 13 14 15 16 17 18 19 20 21 22 23 24 25 26 27 28 29 30 31 32 33 34 35 36 37 38 39 40 41 42 43 44 45 46 47 48 49 50

000
ASUS44 KMEG 050010
RWRTN
TENNESSEE HOURLY STATE WEATHER ROUNDUP
NATIONAL WEATHER SERVICE MEMPHIS TN
700 PM CDT FRI SEP 04 2015

TNZ002-004-019-021-049-052-054-088>092-050100-
WEST TENNESSEE

CITY           SKY/WX    TMP DP  RH WIND       PRES   REMARKS
MEMPHIS INTL   FAIR      90  69  50 NE5       29.97S HX  94
NWS MEMPHIS      N/A     89 N/A N/A MISG        N/A
JACKSON        FAIR      84  76  76 CALM      29.98S HX  93
DYERSBURG      FAIR      86  72  62 N3        29.98S HX  92
UNION CITY     CLEAR     84  73  70 NE3       29.97S HX  91
PARIS          CLEAR     84  70  61 CALM      30.00S
LEXINGTON      CLEAR     79  70  73 CALM      29.99R
$$

TNZ008-025-027-028-033-062-065-066-050100-
NORTH MIDDLE TENNESSEE

CITY           SKY/WX    TMP DP  RH WIND       PRES   REMARKS
NASHVILLE      FAIR      89  60  37 E3        29.99S
CLARKSVILLE    FAIR      87  65  47 CALM      29.99S
SMYRNA         FAIR      87  67  51 CALM      30.00R HX  90
COOKEVILLE     CLEAR     79  72  78 NE3       30.02R
CROSSVILLE     FAIR      80  65  59 N5        30.08R
$$

TNZ061-075-076-078-094-096-097-050100-
SOUTH MIDDLE TENNESSEE

CITY           SKY/WX    TMP DP  RH WIND       PRES   REMARKS
FAYETTEVILLE   CLEAR     81  72  74 CALM      30.01S
TULLAHOMA      CLEAR     81  72  74 CALM      30.03S
WINCHESTER     CLEAR     79  75  89 CALM      30.02R
MCMINNVILLE    CLEAR     82  72  69 N3        30.02S
COLUMBIA       CLEAR     86  72  62 SW3       29.99R HX  92
SHELBYVILLE    CLEAR     82  73  74 CALM      30.01S
$$

TNZ017-018-042-046-047-050100-
NORTHEAST TENNESSEE

CITY           SKY/WX    TMP DP  RH WIND       PRES   REMARKS
TRI CITIES     FAIR      81  67  62 CALM      30.07R
ELIZABETHTON   PTCLDY    73  66  78 CALM      30.08R
$$

TNZ012-013-036-069-073-074-050100-
CENTRAL EAST TENNESSEE

CITY           SKY/WX    TMP DP  RH WIND       PRES   REMARKS
KNOXVILLE      FAIR      86  63  45 E5        30.00S
OAK RIDGE      FAIR      85  68  56 CALM      30.03R
GATLINBURG     CLEAR     82  63  51 CALM      30.01R
MORRISTOWN     CLEAR     82  64  54 NE3       30.06R
$$

TNZ083-085-099-050100-
SOUTHEAST TENNESSEE

CITY           SKY/WX    TMP DP  RH WIND       PRES   REMARKS
CHATTANOOGA    FAIR      87  67  51 NE6       29.99S HX  90
$$

SKY/WX REPORTED AS FAIR MEANS FEW OR NO CLOUDS BELOW
12 THOUSAND FEET.




USA.gov is the U.S. government's official web portal to all federal, state and local government web resources and services.